Location: Newark
(44.3100°N, 0.7769°W)
Time: 05:59:38
(UTC+00:00)

Envisat - Pass Details

Date: 20 November 2019
Orbit: 764 x 766 km, 98.1° (Epoch: 12 December)

Event Time Altitude Azimuth Distance (km) Brightness Sun altitude
Rises 18:17:40 0° 176° (S) 3,219 6.3 -18.7°
Reaches altitude 10° 18:20:00 10° 180° (S) 2,297 5.6 -19.1°
Maximum altitude 18:24:59 59° 259° (W) 882 3.6 -20.0°
Drops below altitude 10° 18:30:02 10° 339° (NNW) 2,312 5.6 -20.9°
Sets 18:32:23 0° 344° (NNW) 3,243 6.4 -21.3°
